Wetbulb
48.60 50.46 50.76 49.55 49.09 49.53 47.71 46.13 45.65 46.75 51.85 52.14 54.25 56.06 62.85 63.03 60.11 63.53 65.17 66.45 67.53 68.41 68.80 70.42 69.64 70.40 71.35 71.62 72.75 72.89 72.25 71.46 71.09 70.97 70.98 70.37 69.84 69.78 69.06 68.95 69.03 69.77 69.11 68.09
48.16 51.73 50.59 50.18 52.50 52.48 53.18 53.95 52.37 53.03 53.01 55.23 56.95 58.95 62.30 59.20 62.47 65.51 66.35 68.25 69.92 71.30 70.45 70.56 70.75 70.21 71.12 71.24 71.14 72.61 72.18 72.00 71.96 71.46 71.31 70.54 69.93 69.61 69.05 68.34 68.33 67.61 66.73 66.88
43.46 49.42 49.41 45.61 53.39 55.66 55.26 53.82 55.00 50.62 54.78 59.23 60.25 61.72 61.66 62.64 65.03 66.01 67.60 69.00 67.87 67.56 68.54 71.50 71.26 70.45 70.43 71.10 71.95 72.47 72.20 72.26 72.24 71.48 70.64 69.65 69.65 70.15 68.58 67.40 67.72 67.25 67.28 67.08
43.77 46.39 39.03 48.77 54.67 57.11 53.03 54.72 55.37 53.85 55.99 58.57 60.09 61.27 62.00 63.47 64.14 65.89 67.21 68.20 68.33 68.74 69.35 67.84 69.30 72.26 71.76 73.41 72.51 72.50 72.14 71.92 71.92 72.11 69.97 70.27 69.89 69.62 68.28 68.02 68.05 68.42 67.63 67.12
41.57 41.01 46.16 52.68 50.50 51.81 50.92 47.67 55.82 54.16 53.83 58.46 57.62 58.59 59.91 63.55 64.09 63.78 65.10 67.94 67.65 68.39 69.60 71.22 72.24 73.44 72.87 72.34 73.04 72.98 72.99 72.17 72.46 72.05 71.06 69.49 68.91 68.15 68.59 68.79 68.62 67.95 67.92 67.57
44.22 40.13 39.55 50.64 52.39 55.07 53.69 46.42 56.46 58.06 53.98 58.12 53.57 50.14 55.15 62.57 64.07 64.23 64.90 65.71 67.06 67.35 67.72 68.36 69.52 71.09 71.71 70.57 71.46 71.33 73.16 72.90 72.95 72.24 70.72 69.46 69.02 68.99 69.10 69.25 68.51 68.04 67.14 66.85
43.98 41.84 48.49 54.26 54.11 55.57 45.14 48.31 58.74 58.59 58.81 58.78 51.98 55.48 61.65 63.41 62.67 62.87 63.76 63.74 64.61 64.91 66.54 67.58 68.88 69.96 70.10 69.63 68.38 69.82 71.06 67.52 62.67 61.13 61.40 68.20 69.11 69.08 68.71 68.76 67.48 66.78 67.12 65.91
44.85 41.77 39.91 57.09 55.92 52.26 54.81 56.91 58.35 58.33 58.28 58.49 59.40 60.35 60.81 62.06 60.69 61.72 61.92 62.78 63.02 63.00 64.14 66.31 68.18 69.22 68.37 67.88 65.54 65.48 63.86 62.11 61.18 60.31 63.08 62.60 62.94 66.74 68.10 66.71 66.17 66.46 65.86 66.65
46.41 47.13 54.84 56.59 55.45 57.78 57.57 56.31 57.14 57.74 58.26 58.22 58.10 59.66 60.39 59.40 60.43 60.80 59.94 59.13 59.75 59.71 61.11 63.13 65.33 65.53 66.87 64.75 64.54 62.14 61.57 59.64 60.92 60.24 62.56 61.79 61.06 62.06 66.89 67.36 66.46 65.36 65.07 64.33
48.99 53.56 54.99 55.86 57.23 57.99 58.24 57.67 58.41 59.06 59.05 59.39 58.21 58.75 59.51 59.94 59.44 58.90 58.60 57.91 58.64 59.45 58.53 59.23 62.26 62.76 68.04 65.59 62.56 60.08 58.08 57.86 59.61 61.39 63.81 59.37 60.79 63.86 66.80 66.12 65.40 64.61 64.82 63.53
49.72 53.66 55.87 54.04 56.08 58.01 59.35 59.63 58.92 58.70 60.43 59.95 59.60 59.52 59.67 59.11 59.12 58.61 58.08 57.37 57.23 56.60 57.46 58.06 58.81 58.85 60.57 63.82 61.75 59.44 58.72 58.32 58.99 59.84 60.74 65.55 65.46 64.42 65.28 61.29 62.33 63.99 63.53 63.66
46.98 52.31 51.12 50.52 55.77 58.48 56.48 56.39 57.83 56.32 59.41 61.26 60.69 59.22 59.31 58.12 58.79 58.78 57.15 56.87 55.84 56.10 56.34 56.46 57.88 58.10 58.58 59.80 61.89 65.02 63.41 62.21 62.21 61.68 64.72 64.65 61.38 60.08 53.54 55.55 51.95 50.96 53.34 56.82
53.95 54.68 53.45 53.67 55.59 58.57 56.80 57.39 58.14 56.59 59.59 59.92 60.30 59.25 58.94 57.30 57.55 57.96 57.97 57.11 56.20 55.42 55.18 55.80 56.64 57.87 58.32 59.07 58.93 58.10 57.52 60.46 62.61 61.09 62.86 62.31 62.47 60.38 59.15 56.18 47.74 44.66 44.26 47.16
56.78 56.27 55.15 55.28 52.72 56.02 57.13 58.59 58.26 59.63 60.94 59.88 59.53 60.15 59.10 58.02 57.87 57.19 56.42 57.04 57.05 55.90 55.66 55.58 55.27 54.86 58.24 59.12 58.56 57.80 57.12 53.97 57.20 57.02 59.29 60.55 60.91 61.42 59.67 58.19 55.71 55.32 47.16 47.18
56.14 56.41 53.36 55.44 56.38 57.84 59.49 59.54 58.74 58.52 59.34 59.54 59.25 59.33 58.59 56.44 56.02 55.82 56.14 56.29 55.49 54.61 54.63 55.41 55.39 55.23 57.02 59.54 58.28 57.70 57.16 57.24 57.16 57.28 56.78 56.92 58.32 59.75 60.15 59.48 58.09 57.73 53.52 49.12
54.81 54.79 55.57 55.82 57.00 57.59 58.03 58.75 56.86 56.77 58.10 58.19 57.45 57.79 57.23 56.95 56.14 55.94 55.82 56.03 53.71 53.17 56.28 55.12 54.13 55.60 58.97 59.07 58.75 58.36 57.08 55.86 56.06 57.08 57.59 58.25 58.85 58.89 58.84 59.24 59.52 59.89 58.28 58.02
50.95 51.45 53.71 55.22 56.30 56.48 56.29 57.38 57.03 55.99 56.57 56.30 56.86 57.37 57.94 57.55 57.00 57.35 56.22 56.45 55.67 54.75 54.85 54.32 53.84 55.56 56.75 55.32 54.57 56.34 58.49 57.97 56.08 55.82 57.40 58.39 58.81 58.82 58.87 58.83 59.19 59.46 58.89 56.22
54.06 54.13 56.18 57.26 56.26 54.95 56.06 56.36 55.68 55.34 54.46 55.50 56.30 56.78 56.94 57.54 56.56 56.38 55.89 56.32 55.72 56.11 56.12 56.67 54.28 55.24 56.51 55.04 54.46 54.58 55.45 56.50 57.92 56.70 55.76 57.05 57.27 58.30 58.72 58.87 59.26 59.19 58.29 57.14
58.11 57.22 57.75 58.04 57.60 57.27 56.70 56.09 55.42 55.43 56.71 56.35 55.46 54.84 55.57 56.59 56.49 55.29 54.38 53.35 51.96 51.85 53.37 54.77 56.45 57.20 55.58 56.15 56.21 55.20 55.11 55.69 56.16 57.06 58.34 56.50 56.72 57.95 58.53 58.10 57.68 56.98 56.96 56.78
57.91 58.29 57.97 57.73 58.01 54.03 53.48 55.49 57.76 56.70 57.09 56.89 56.33 55.63 54.81 54.48 54.64 53.56 52.55 51.32 51.44 52.54 53.33 53.97 55.75 55.75 55.38 56.29 56.98 54.24 54.54 55.71 55.71 55.54 56.17 55.22 55.28 55.35 54.86 52.42 55.15 55.12 54.58 54.41
57.43 57.89 57.41 56.89 55.14 54.88 55.65 56.76 55.04 56.67 56.98 57.28 55.17 54.50 52.70 52.82 53.01 52.01 50.83 50.57 52.73 54.92 51.63 55.06 55.21 55.20 55.38 53.40 54.55 53.79 53.87 54.03 54.17 55.39 56.16 54.91 53.82 54.09 54.97 54.82 55.05 54.97 54.43 54.45
56.72 56.51 56.58 55.23 53.50 53.48 53.99 53.44 54.22 56.83 56.23 56.36 55.84 54.74 52.96 51.84 52.11 53.32 54.31 52.86 53.71 52.15 53.56 54.99 54.25 53.38 53.54 53.33 53.35 53.44 54.35 53.88 54.31 54.97 54.81 54.33 52.75 52.65 53.17 53.34 52.99 52.78 51.55 50.93
56.00 56.61 56.87 56.79 55.84 55.24 54.12 56.97 54.39 56.58 56.21 55.01 53.44 52.24 51.56 52.42 51.61 50.83 50.13 52.63 53.22 52.13 51.34 53.20 51.50 52.88 52.41 50.97 53.11 53.85 53.29 54.61 53.36 53.58 53.66 53.37 53.48 53.61 52.60 51.73 50.38 50.19 50.04 49.89
54.67 55.21 54.67 55.40 56.21 56.34 54.47 55.77 56.22 56.14 55.16 54.98 53.48 53.47 52.87 52.86 53.92 51.17 49.76 49.34 50.35 49.10 50.68 51.15 51.61 51.30 50.63 51.52 52.18 53.56 53.12 53.27 53.05 52.42 52.24 48.61 50.36 50.29 50.42 49.83 47.64 46.89 46.23 46.20
56.19 55.45 55.76 55.18 54.22 55.14 55.62 56.23 55.85 55.20 55.48 54.55 54.30 54.70 54.88 55.92 53.67 52.35 50.89 49.48 48.58 48.10 50.05 50.07 49.94 49.73 49.22 51.53 52.47 51.51 50.06 49.61 50.69 52.09 49.36 48.97 47.82 47.91 48.42 48.30 48.07 47.89 47.80 47.90
56.25 55.87 55.60 55.82 55.97 56.29 56.24 56.16 54.75 55.18 55.24 53.71 54.61 55.41 54.97 54.35 51.22 52.00 51.92 51.38 51.25 49.50 50.13 51.26 51.03 50.64 50.38 49.57 49.18 48.62 48.48 49.03 48.91 47.81 48.87 48.30 47.63 47.27 46.94 46.61 46.63 47.75 47.76 48.07
57.51 53.22 55.87 55.60 57.55 57.57 56.65 54.91 53.39 53.15 53.96 54.02 52.48 54.06 54.95 52.61 51.77 51.80 50.69 51.41 51.18 51.40 50.97 50.66 50.70 50.08 51.88 50.15 49.73 49.78 49.96 48.67 46.93 48.50 49.43 49.42 49.38 49.19 49.33 49.50 49.19 49.68 48.97 50.05
MSLP
998.52 997.48 996.96 996.61 996.99 997.06 998.08 998.55 999.39 999.74 1000.78 1001.36 1001.28 1001.75 1002.54 1002.66 1003.28 1005.49 1003.72 1002.02 1001.21 1001.61 1001.84 1001.71 1002.75 1003.59 1003.25 1003.99 1004.73 1005.36 1005.93 1006.37 1006.75 1007.35 1007.89 1008.40 1008.68 1009.06 1009.37 1009.70 1010.09 1010.14 1010.22 1010.39
999.64 998.48 998.31 998.76 999.12 998.05 998.71 999.32 999.52 1000.08 1001.29 1002.36 1001.51 1001.52 1002.60 1003.56 1003.32 1003.89 1003.82 1002.51 1002.53 1002.53 1002.36 1002.05 1002.31 1003.49 1003.14 1003.71 1003.98 1004.41 1005.00 1005.71 1006.30 1006.93 1007.54 1008.14 1008.55 1008.88 1009.29 1009.77 1010.15 1010.28 1010.25 1010.34
1001.47 1000.13 999.13 1000.13 1000.84 1000.12 1000.47 1000.64 1001.72 1002.49 1003.46 1003.18 1002.45 1002.92 1003.09 1003.35 1002.90 1003.07 1003.64 1003.24 1004.45 1004.75 1002.58 1002.20 1002.56 1003.10 1002.81 1003.16 1003.29 1004.03 1005.34 1006.32 1006.48 1006.60 1006.86 1007.16 1007.78 1008.65 1009.44 1009.80 1009.95 1010.40 1010.62 1010.56
1002.96 1001.65 1001.57 1003.10 1002.71 1002.13 1004.29 1004.35 1005.65 1005.23 1004.12 1003.23 1004.02 1004.14 1004.70 1004.28 1003.91 1003.62 1003.25 1003.12 1002.95 1003.63 1003.79 1003.75 1003.22 1002.33 1002.24 1002.64 1003.03 1004.50 1005.12 1005.44 1005.09 1005.81 1006.20 1006.66 1006.88 1007.17 1008.06 1009.01 1009.61 1010.04 1010.41 1010.46
1003.70 1002.91 1002.44 1003.18 1004.24 1005.03 1005.33 1008.17 1008.36 1008.54 1006.53 1005.21 1004.33 1004.38 1005.70 1006.25 1004.96 1004.87 1004.73 1004.19 1004.34 1004.13 1003.93 1003.29 1003.23 1003.56 1003.54 1002.97 1003.22 1003.85 1003.97 1003.73 1005.02 1005.15 1005.68 1005.65 1005.88 1006.20 1007.18 1007.88 1009.20 1009.96 1010.39 1010.62
1003.89 1004.07 1003.96 1004.34 1004.79 1004.20 1005.57 1007.98 1008.56 1008.89 1008.53 1007.33 1006.59 1007.28 1006.83 1007.15 1006.10 1005.73 1005.43 1004.70 1005.08 1004.99 1004.66 1004.35 1004.31 1004.32 1004.12 1004.41 1003.91 1003.70 1002.96 1003.28 1002.99 1003.87 1004.13 1003.95 1003.75 1005.19 1006.72 1007.81 1008.53 1009.25 1009.79 1010.56
1004.61 1004.66 1004.52 1004.54 1005.55 1006.24 1006.23 1007.55 1007.34 1006.80 1007.47 1007.91 1008.60 1007.92 1008.62 1008.08 1007.15 1007.05 1006.76 1006.76 1006.69 1006.36 1005.82 1005.27 1005.19 1004.93 1004.86 1005.03 1004.71 1004.59 1003.93 1003.97 1005.49 1006.35 1006.20 1005.10 1000.81 1005.28 1005.20 1007.15 1008.48 1008.85 1009.30 1010.30
1006.44 1005.53 1005.22 1004.38 1005.14 1005.48 1006.26 1005.88 1006.43 1005.99 1006.63 1007.35 1007.25 1008.33 1008.12 1007.96 1008.48 1008.53 1008.45 1008.29 1008.11 1007.70 1007.10 1006.30 1005.78 1005.38 1005.31 1005.56 1005.53 1005.36 1005.40 1004.68 1006.07 1006.34 1006.20 1005.27 1007.76 1007.29 1006.38 1006.97 1008.19 1008.75 1008.88 1009.39
1009.68 1009.13 1007.83 1006.13 1006.38 1006.13 1006.47 1006.34 1005.55 1006.00 1006.92 1007.26 1007.54 1008.32 1007.97 1008.13 1008.39 1008.71 1008.99 1009.19 1008.87 1008.52 1008.01 1007.42 1006.90 1006.38 1005.48 1005.32 1005.56 1005.84 1005.48 1005.37 1005.48 1005.56 1005.71 1005.58 1005.20 1006.92 1007.08 1006.52 1007.45 1007.90 1008.51 1008.85
1009.93 1009.54 1008.62 1007.21 1007.34 1007.07 1006.48 1006.84 1007.13 1007.59 1007.93 1008.00 1008.53 1008.68 1008.52 1008.58 1009.01 1009.72 1009.90 1010.13 1009.93 1009.38 1008.90 1008.53 1007.81 1006.72 1005.25 1005.62 1005.54 1005.29 1005.73 1005.27 1004.89 1004.75 1003.86 1004.29 1005.45 1006.52 1006.33 1006.12 1006.67 1007.47 1008.41 1008.97
1010.34 1009.14 1008.07 1008.42 1008.92 1007.92 1007.49 1007.22 1007.23 1007.27 1007.51 1008.18 1008.67 1009.25 1009.64 1010.09 1010.76 1011.11 1011.06 1010.72 1010.35 1009.91 1009.44 1009.04 1008.26 1007.45 1006.46 1005.71 1005.52 1005.70 1005.36 1004.72 1004.30 1003.73 1003.49 1003.01 1003.98 1005.06 1005.25 1006.29 1006.78 1007.21 1007.77 1008.33
1009.50 1009.88 1010.03 1010.25 1009.37 1008.25 1007.61 1007.27 1007.12 1007.43 1007.89 1008.06 1008.38 1008.67 1009.03 1009.45 1009.99 1010.16 1010.26 1010.41 1010.39 1010.11 1009.71 1009.44 1008.59 1007.93 1007.15 1006.36 1005.65 1005.26 1005.47 1005.49 1005.11 1004.95 1004.81 1005.03 1005.33 1005.80 1006.17 1006.52 1006.95 1006.72 1007.53 1007.74
1008.80 1009.01 1008.33 1008.11 1008.29 1007.91 1007.58 1007.30 1006.89 1007.07 1007.55 1008.00 1008.55 1008.97 1009.49 1010.03 1009.94 1009.93 1010.11 1010.36 1010.43 1010.24 1009.93 1009.59 1009.01 1008.16 1007.77 1007.22 1006.84 1006.57 1006.37 1005.77 1005.71 1005.75 1005.60 1005.57 1005.83 1006.26 1006.59 1007.15 1007.90 1007.77 1008.24 1007.96
1007.73 1008.00 1008.05 1008.01 1007.61 1007.22 1006.72 1006.29 1006.33 1007.06 1007.83 1008.57 1008.98 1009.17 1009.25 1009.41 1009.90 1010.25 1010.42 1010.44 1010.41 1010.30 1010.10 1009.95 1009.62 1008.98 1008.54 1007.93 1007.54 1007.48 1007.14 1007.12 1006.75 1006.81 1006.89 1006.85 1007.10 1006.83 1006.81 1007.15 1008.10 1008.20 1008.51 1009.21
1006.91 1006.58 1006.43 1006.57 1007.06 1007.12 1006.84 1007.00 1007.38 1007.80 1008.12 1008.59 1008.62 1008.94 1009.15 1009.41 1009.98 1010.28 1010.27 1010.34 1010.51 1010.61 1010.56 1010.33 1010.04 1009.72 1009.21 1008.76 1008.31 1008.00 1007.84 1007.77 1007.84 1007.20 1007.49 1007.36 1006.07 1006.86 1006.47 1007.23 1008.05 1008.19 1009.18 1010.23
1005.75 1005.78 1006.48 1007.04 1007.44 1007.44 1007.46 1007.79 1008.28 1008.83 1009.09 1009.20 1009.40 1009.63 1009.85 1010.07 1010.27 1010.35 1010.32 1010.49 1010.75 1010.86 1010.84 1010.67 1010.27 1010.01 1009.43 1009.14 1009.07 1008.80 1008.41 1008.42 1008.15 1008.08 1007.89 1007.66 1007.06 1008.10 1007.91 1007.50 1008.32 1008.87 1009.40 1010.00
1005.78 1005.87 1006.32 1007.11 1007.57 1007.96 1008.08 1008.74 1009.17 1009.64 1009.99 1009.95 1010.55 1010.83 1010.78 1010.47 1010.32 1010.26 1010.31 1010.38 1010.48 1010.61 1010.77 1010.67 1010.43 1009.90 1009.74 1009.52 1009.32 1009.02 1008.71 1008.75 1008.46 1008.22 1008.23 1007.86 1008.03 1008.36 1008.59 1008.77 1008.95 1009.33 1009.55 1009.99
1005.54 1005.82 1006.17 1007.12 1007.87 1008.29 1008.74 1009.21 1009.62 1010.08 1010.36 1010.45 1010.14 1010.25 1010.72 1010.47 1010.46 1010.23 1010.26 1010.25 1010.31 1010.36 1010.69 1010.58 1010.39 1010.11 1009.71 1009.54 1009.27 1009.04 1008.40 1008.03 1007.94 1008.06 1007.85 1008.12 1008.03 1007.56 1007.67 1008.44 1008.84 1009.11 1009.65 1010.08
1005.42 1005.78 1006.21 1007.13 1007.73 1008.11 1008.56 1009.04 1009.59 1009.90 1009.97 1010.22 1010.29 1010.32 1010.30 1010.46 1010.35 1010.47 1010.38 1010.53 1010.61 1010.70 1010.94 1010.67 1010.33 1010.06 1010.08 1009.79 1009.35 1008.89 1008.58 1008.19 1007.85 1007.48 1007.59 1007.36 1007.17 1007.57 1007.86 1008.44 1008.77 1009.22 1009.58 1010.10
1006.39 1006.61 1007.28 1007.89 1008.51 1009.54 1009.85 1010.50 1009.46 1009.45 1009.43 1009.84 1010.24 1010.28 1010.52 1010.59 1010.56 1010.63 1010.54 1010.66 1010.68 1010.78 1010.73 1010.61 1010.31 1010.13 1010.06 1009.82 1009.53 1009.18 1008.91 1008.47 1008.13 1008.12 1008.04 1008.00 1008.13 1008.43 1008.58 1008.68 1009.20 1009.49 1009.93 1010.48
1007.38 1007.68 1008.48 1008.99 1009.77 1009.63 1009.49 1010.88 1011.01 1009.97 1009.74 1009.76 1010.19 1010.53 1010.75 1010.86 1010.72 1010.74 1010.70 1010.70 1010.65 1010.51 1010.59 1010.45 1010.44 1010.30 1010.08 1009.99 1009.70 1009.45 1009.15 1008.78 1008.49 1008.45 1008.56 1008.64 1008.74 1009.02 1009.45 1009.48 1009.65 1009.96 1010.73 1011.03
1007.97 1008.18 1008.81 1009.35 1009.98 1010.50 1010.64 1011.06 1011.00 1010.89 1010.11 1010.38 1010.46 1010.60 1010.73 1010.85 1010.85 1010.75 1010.63 1010.59 1010.47 1010.50 1010.48 1010.34 1010.37 1010.38 1010.35 1010.20 1010.10 1009.83 1009.59 1009.38 1009.29 1009.25 1009.36 1009.40 1009.57 1009.81 1010.04 1010.22 1010.19 1010.65 1011.15 1011.21
1008.11 1008.42 1008.79 1009.13 1009.55 1010.03 1010.44 1010.24 1010.95 1010.68 1010.35 1010.51 1010.79 1010.78 1010.55 1010.42 1010.34 1010.48 1010.60 1010.50 1010.54 1010.65 1010.55 1010.48 1010.50 1010.49 1010.23 1010.28 1010.16 1009.93 1009.78 1009.70 1009.66 1009.56 1009.52 1009.57 1009.67 1009.92 1010.14 1010.39 1010.60 1011.04 1011.50 1011.57
1008.31 1008.48 1008.69 1008.94 1009.15 1009.38 1009.82 1010.14 1010.14 1010.21 1010.34 1010.55 1010.75 1010.56 1010.39 1010.32 1010.21 1010.50 1010.49 1010.56 1010.50 1010.58 1010.48 1010.34 1010.32 1010.33 1010.31 1010.20 1009.92 1009.78 1009.61 1009.66 1009.74 1009.80 1009.89 1009.80 1009.96 1010.14 1010.40 1010.66 1010.98 1011.38 1011.61 1011.80
1008.27 1008.32 1008.43 1008.61 1008.87 1009.26 1009.41 1009.67 1009.91 1010.07 1010.18 1010.33 1010.39 1010.19 1009.95 1009.84 1009.89 1010.47 1010.65 1010.69 1010.57 1010.51 1010.21 1009.99 1010.03 1009.97 1009.91 1009.57 1009.21 1009.26 1009.44 1009.33 1009.43 1009.59 1009.78 1009.99 1010.26 1010.43 1010.60 1010.86 1011.22 1011.49 1011.80 1012.09
1008.21 1008.29 1008.23 1008.23 1008.30 1008.59 1008.84 1009.07 1009.47 1009.59 1009.62 1009.78 1009.73 1009.66 1009.67 1009.67 1009.81 1010.04 1010.21 1010.36 1010.34 1010.36 1010.30 1010.03 1009.81 1009.65 1009.46 1009.32 1009.27 1009.32 1009.44 1009.50 1009.55 1009.62 1009.73 1009.94 1010.12 1010.50 1010.80 1011.04 1011.32 1011.56 1011.72 1011.88
1008.03 1007.97 1007.85 1007.98 1007.99 1008.09 1008.27 1008.45 1008.52 1008.72 1008.84 1009.03 1009.26 1009.15 1009.31 1009.46 1009.67 1009.90 1009.91 1010.01 1009.98 1009.99 1009.87 1009.66 1009.58 1009.51 1009.38 1009.31 1009.28 1009.30 1009.52 1009.54 1009.73 1009.88 1009.91 1010.06 1010.33 1010.49 1010.73 1010.98 1011.11 1011.33 1011.43 1011.55
Wind_Speed
10 9 10 12 13 21 15 7 7 10 10 6 6 8 19 23 25 7 27 2 5 9 8 9 10 10 13 12 13 13 13 10 11 9 7 6 7 7 7 7 7 7 6 6
8 10 11 12 10 10 9 13 14 7 10 3 5 7 13 21 19 6 17 4 11 6 5 8 12 9 9 10 9 14 15 13 8 11 9 8 7 7 7 7 6 6 6 6
6 7 8 7 17 14 13 20 7 5 5 5 13 17 11 9 12 11 9 12 8 10 4 4 10 8 7 8 8 12 12 8 8 12 12 10 9 8 7 7 6 5 5 6
7 2 4 8 15 27 25 22 16 4 4 10 11 11 14 14 12 11 11 12 13 11 11 6 5 3 8 9 8 10 10 9 11 13 13 11 13 11 9 6 7 6 6 6
2 3 6 5 8 4 6 9 17 13 13 10 10 11 11 13 12 10 9 8 8 11 12 14 14 10 8 6 6 8 14 15 13 15 15 13 13 10 6 8 6 5 4 6
1 2 4 2 1 11 4 7 7 12 11 5 8 5 1 16 10 11 11 9 9 9 8 10 11 11 10 7 4 7 12 15 15 12 12 17 18 12 6 5 6 6 6 5
4 4 2 7 5 6 1 6 10 14 5 7 4 8 8 10 9 9 9 12 12 11 7 7 8 9 8 7 7 9 8 8 19 12 13 30 10 2 8 7 6 6 7 5
7 3 2 7 4 5 4 5 10 9 7 4 8 5 7 7 4 6 9 13 15 12 12 10 7 8 5 5 6 6 9 9 11 12 10 11 6 22 6 6 6 6 7 7
3 3 7 11 10 9 7 5 8 9 6 6 6 7 7 6 8 10 12 11 11 10 9 11 12 12 5 3 2 4 6 5 7 6 9 13 16 18 10 8 9 8 7 6
2 7 7 6 8 7 8 8 6 6 5 6 8 6 8 8 8 8 8 8 9 9 10 11 13 15 6 4 3 4 6 4 6 10 9 10 11 16 8 6 6 4 6 4
4 8 4 20 16 6 5 7 7 6 8 7 7 7 7 7 6 7 5 3 4 6 8 10 11 13 14 14 2 3 2 1 6 4 1 6 5 3 6 1 2 5 5 4
1 7 10 7 8 8 6 5 6 5 5 7 7 5 7 6 4 6 6 5 5 5 7 8 9 11 14 15 13 3 3 3 3 4 3 1 5 4 11 5 1 12 9 8
4 12 7 8 15 8 3 2 5 3 5 9 5 7 8 4 3 6 6 5 5 5 5 6 8 10 10 10 11 12 9 7 6 6 5 4 1 3 4 4 8 10 10 11
8 5 6 12 5 5 6 2 3 2 7 5 6 5 6 6 6 6 5 6 5 5 6 6 7 8 9 8 8 9 9 12 9 8 8 8 7 2 3 4 3 3 6 7
5 9 6 6 2 9 11 11 10 6 6 4 3 5 5 7 7 5 4 4 5 6 6 6 7 8 7 7 6 6 6 5 5 6 5 5 9 10 7 5 4 4 4 6
2 6 8 11 8 8 9 11 9 10 9 5 5 6 7 6 4 2 2 3 3 3 4 5 6 6 8 5 5 3 4 5 3 3 3 5 9 6 7 7 7 4 5 3
4 1 4 8 7 6 8 7 7 5 6 10 10 10 10 3 3 3 4 4 1 3 1 4 6 7 7 6 6 4 1 2 4 3 0 3 3 3 3 3 3 3 5 4
1 4 5 13 9 7 7 7 7 5 4 4 6 6 5 4 6 2 5 4 5 4 6 4 5 6 5 7 6 6 4 3 3 5 3 4 5 2 2 1 2 6 4 5
6 5 7 9 7 7 7 7 6 6 6 6 5 5 4 0 4 5 5 5 6 6 4 6 9 6 4 7 8 4 5 5 6 5 1 2 1 3 4 8 6 6 6 7
16 14 16 11 11 12 13 17 3 5 4 4 3 6 6 6 6 5 4 4 2 1 5 4 5 4 5 6 8 4 4 5 4 4 4 5 7 8 7 9 8 9 8 7
8 10 11 10 6 10 15 8 13 4 4 6 7 6 6 4 4 3 3 3 3 4 6 6 2 3 3 5 4 4 5 5 5 5 5 6 8 7 7 7 8 8 7 7
6 6 7 7 8 6 9 3 5 9 5 3 5 5 6 3 3 2 2 1 2 4 4 1 0 4 5 9 4 1 2 4 4 4 5 4 5 5 6 5 6 6 6 5
6 5 5 4 4 6 5 7 13 6 5 4 3 2 1 2 3 1 2 2 2 2 4 1 1 5 8 5 3 4 1 3 3 3 4 4 4 4 5 5 5 5 4 5
2 3 2 2 2 3 5 6 6 6 5 5 5 4 3 3 4 2 3 2 1 4 3 2 2 7 7 4 5 5 5 5 5 3 2 3 4 5 4 5 6 5 5 6
2 2 4 4 3 4 5 6 6 5 6 5 5 4 5 3 3 4 4 3 3 4 3 4 8 9 5 4 4 4 3 3 3 4 4 5 5 5 5 5 5 5 5 5
2 4 3 4 3 3 4 5 5 5 4 4 4 4 3 4 4 4 4 6 5 5 4 5 4 5 2 3 3 3 3 4 4 4 5 5 6 5 5 5 4 5 5 5
5 7 5 3 4 5 4 4 3 3 4 4 3 3 2 4 5 5 6 5 5 5 5 4 4 5 2 2 3 3 4 4 3 3 3 4 5 5 6 5 5 5 4 5
Wind_Direction
306 312 326 63 341 291 286 237 172 228 132 205 199 101 91 89 93 255 293 159 172 129 137 134 137 163 162 168 174 181 189 184 185 180 175 179 188 172 165 174 192 210 173 173
307 347 51 84 345 293 348 0 331 102 83 342 14 47 86 117 131 188 276 27 42 65 117 131 150 175 162 181 183 183 188 196 169 174 172 182 184 171 165 184 207 174 167 167
321 14 12 49 19 44 48 28 25 73 16 108 59 54 33 61 97 79 50 17 78 127 294 175 170 181 174 190 196 177 183 185 170 180 178 180 170 174 174 186 173 186 192 182
293 6 22 101 51 76 61 36 12 56 64 61 40 40 34 24 35 45 48 20 8 10 1 359 348 287 192 194 206 157 174 192 190 180 186 176 179 172 173 169 182 179 199 194
198 318 277 52 28 92 105 16 355 351 346 15 48 47 16 359 32 20 10 47 14 359 356 355 17 8 327 261 189 187 187 204 194 185 179 181 176 164 163 150 163 176 199 205
325 15 316 330 90 130 181 116 95 5 299 11 11 42 155 329 8 3 357 23 12 5 358 6 353 346 342 0 248 227 222 205 185 201 187 190 171 165 148 145 164 168 168 189
202 203 123 139 166 211 82 160 166 147 156 114 167 134 202 251 10 1 7 12 2 352 340 343 334 331 342 350 21 337 327 61 62 24 342 337 72 353 135 153 180 173 150 174
346 321 298 328 121 68 162 91 141 111 55 69 94 156 151 115 73 14 21 20 13 1 346 321 322 316 323 10 332 34 81 81 111 129 121 89 292 289 213 171 169 164 157 159
43 347 308 39 82 105 108 96 50 62 59 81 70 59 67 56 48 45 39 23 7 355 337 345 344 339 339 291 13 110 107 135 137 167 134 178 197 240 236 170 171 172 169 180
208 87 209 107 67 66 85 98 99 130 104 96 98 70 56 52 46 48 35 19 10 11 6 357 354 351 302 323 134 90 104 168 173 138 152 126 165 237 224 186 152 181 180 188
279 12 0 12 356 15 73 82 64 19 89 90 100 109 126 123 124 118 110 70 38 28 24 22 14 9 355 346 118 86 136 214 329 335 41 149 157 179 155 82 169 185 178 168
312 167 136 212 279 256 331 358 96 18 93 89 111 105 82 67 80 120 110 70 32 22 16 16 24 24 14 6 3 313 165 218 284 298 305 195 122 92 44 70 203 119 136 136
155 199 215 185 214 232 220 216 127 239 135 142 147 125 124 113 33 46 58 109 73 32 16 28 18 27 18 16 26 33 19 22 24 18 354 341 145 160 147 50 55 55 62 112
204 195 167 179 222 237 232 202 220 68 88 91 135 99 109 105 76 72 51 26 60 28 7 8 8 12 350 4 26 34 41 23 49 40 29 36 20 240 109 115 159 142 62 45
265 218 197 181 41 46 48 40 48 64 104 89 75 113 109 88 81 69 46 53 57 35 7 358 13 351 339 341 17 29 40 39 6 60 42 28 63 359 54 41 197 126 96 91
150 94 92 100 96 69 64 54 47 38 22 37 46 69 71 86 86 77 39 27 62 36 5 348 356 347 332 353 349 6 65 61 63 27 56 50 48 47 356 42 41 38 76 69
286 22 108 86 104 94 79 91 103 94 84 87 57 25 358 307 235 250 224 192 134 70 36 32 345 344 339 18 350 319 253 191 146 123 203 109 144 158 94 83 88 76 108 127
237 232 97 144 153 142 143 129 115 124 123 132 116 125 214 282 276 66 44 14 360 68 39 27 355 330 357 349 337 298 316 273 242 217 186 209 231 176 219 168 192 145 138 155
105 105 113 118 113 119 139 156 165 178 168 190 183 204 184 99 61 69 44 41 32 25 13 333 342 349 29 333 340 344 352 15 8 17 283 264 0 197 105 107 106 119 115 101
46 41 47 71 78 67 41 356 144 182 185 196 111 84 74 46 28 37 25 14 54 304 320 346 352 350 24 354 357 9 2 1 18 357 53 65 74 79 80 75 86 87 86 86
56 63 63 67 44 59 69 335 326 252 86 124 121 109 112 102 61 359 352 35 319 343 325 305 345 359 40 359 7 4 6 6 17 50 73 73 77 75 86 86 90 96 96 96
42 64 105 98 105 111 95 12 319 294 109 83 103 115 123 115 263 275 285 42 299 322 316 119 47 15 350 356 316 350 25 29 21 47 80 85 89 97 100 96 97 99 113 104
33 52 41 44 160 159 196 187 215 216 93 97 108 128 212 232 210 196 206 220 321 315 295 118 86 346 343 338 308 274 187 100 80 80 85 96 103 107 105 109 113 102 104 88
84 15 22 3 328 146 126 161 142 134 133 129 173 219 228 284 294 127 113 111 20 3 334 117 291 297 294 277 255 230 221 174 173 174 214 169 116 97 102 99 90 107 108 106
83 277 273 217 245 127 157 155 164 169 169 169 190 223 249 287 145 155 162 160 216 277 265 235 260 273 264 277 105 75 85 73 96 166 122 103 102 94 92 96 107 120 122 129
277 279 283 257 177 157 170 160 180 198 200 184 201 219 181 154 133 139 138 184 199 223 269 275 296 311 333 45 87 106 103 51 39 57 102 117 120 117 124 128 135 134 141 156
272 255 248 292 185 183 198 189 175 183 193 172 217 248 195 194 168 188 189 204 224 220 223 216 233 258 255 225 232 130 129 114 93 62 117 121 143 162 163 169 150 151 178 159